Stations météo

Publicité
Paris/Charles De Gaulle, France (7157): Température de l'air & dewpoint: 20.06.2019 20:00:00 - 26.06.2019 20:00:00 (CEST)Paris/Charles De Gaulle, France (7157): Température de l'air 5cm: 20.06.2019 20:00:00 - 26.06.2019 20:00:00 (CEST)Paris/Charles De Gaulle, France (7157): Température de l'air -20cm & Température de l'air -100cm: 20.06.2019 20:00:00 - 26.06.2019 20:00:00 (CEST)Paris/Charles De Gaulle, France (7157): Vitesse du vent & gusts: 20.06.2019 20:00:00 - 26.06.2019 20:00:00 (CEST)Paris/Charles De Gaulle, France (7157): Direction du vent: 20.06.2019 20:00:00 - 26.06.2019 20:00:00 (CEST)Paris/Charles De Gaulle, France (7157): reduced air pressure: 20.06.2019 20:00:00 - 26.06.2019 20:00:00 (CEST)Paris/Charles De Gaulle, France (7157): visibility: 20.06.2019 20:00:00 - 26.06.2019 20:00:00 (CEST)Paris/Charles De Gaulle, France (7157): Ensoleillement: 20.06.2019 20:00:00 - 26.06.2019 20:00:00 (CEST)Paris/Charles De Gaulle, France (7157): Quantités de précipitations: 20.06.2019 20:00:00 - 26.06.2019 20:00:00 (CEST)
Date & Time tt [°C] td [°C] tt 5cm [°C] tt -20cm [°C] tt -100cm [°C] ff [km/h] ff [knt] fx [km/h] fx [knt] dd ppp [hPa] vv [km] sd [min] rr [mm]
26.06.2019 20:00:00 28,6 21,1 28,9 24,4 17,8 27 15 49 26 NNE 1020,3 18 60 0,0
26.06.2019 19:00:00 30,0 21,4 31,7 24,2 17,8 27 15 48 26 NE 1020,2 18 60 0,0
26.06.2019 18:00:00 31,2 22,2 33,8 24,0 17,8 24 13 48 26 NE 1020,2 15 60 0,0
26.06.2019 17:00:00 31,3 22,0 34,7 23,6 17,8 24 13 43 23 NE 1020,5 15 60 0,0
26.06.2019 16:00:00 31,0 21,5 34,7 23,3 17,8 27 15 45 24 NE 1020,7 15 60 0,0
26.06.2019 15:00:00 30,7 20,3 34,3 23,0 17,7 24 13 45 24 NE 1021,3 13 60 0,0
26.06.2019 14:00:00 29,8 20,9 33,6 22,7 17,7 27 15 54 29 NE 1021,7 12 60 0,0
26.06.2019 13:00:00 29,2 20,1 33,0 22,4 17,7 23 12 43 23 NNE 1022,1 11 60 0,0
26.06.2019 12:00:00 28,4 20,2 31,3 22,3 17,7 20 11 38 20 NE 1022,2 10 60 0,0
26.06.2019 11:00:00 26,5 20,1 28,4 22,3 17,7 24 13 41 22 NE 1022,2 9 60 0,0
26.06.2019 10:00:00 24,6 19,2 25,5 22,4 17,6 19 10 43 23 NNE 1022,5 7 60 0,0
26.06.2019 09:00:00 22,6 18,2 24,4 22,5 17,7 21 11 58 31 NNE 1022,1 6 60 0,0
26.06.2019 08:00:00 21,3 17,9 20,8 22,7 17,6 21 12 48 26 NNE 1022,5 4,5 60 0,0
26.06.2019 07:00:00 20,0 17,8 19,4 22,9 17,6 16 9 39 21 NNE 1021,5 4,0 21 0,0
26.06.2019 06:00:00 19,6 17,9 18,6 23,1 17,6 17 9 39 21 N 1021,3 4,0 0 0,0
26.06.2019 05:00:00 19,0 17,5 18,6 23,3 17,6 16 8 56 30 NNE 1021,5 5 0 0,0
26.06.2019 04:00:00 19,3 17,4 18,9 23,5 17,5 15 8 26 14 NNE 1021,4 7 0 0,0
26.06.2019 03:00:00 19,8 17,6 19,4 23,7 17,5 10 5 18 10 NNE 1021,3 10 0 0,0
26.06.2019 02:00:00 20,8 17,8 20,2 23,9 17,5 14 7 29 16 NNE 1021,3 15 0 0,0
26.06.2019 01:00:00 21,5 17,7 21,0 24,1 17,5 16 8 34 19 N 1021,0 15 0 0,0
26.06.2019 00:00:00 22,9 18,0 22,2 24,2 17,5 15 8 40 21 NNE 1020,9 20 0 0,0
25.06.2019 23:00:00 24,3 19,6 23,8 24,3 17,5 20 11 39 21 NNE 1020,3 25 0 0,0
25.06.2019 22:00:00 26,9 20,3 25,9 24,4 17,5 21 11 29 16 N 1019,4 26 0 0,0
25.06.2019 21:00:00 29,8 19,5 29,3 24,4 17,5 9 5 11 6 NNE 1018,5 25 18 0,0
25.06.2019 20:00:00 30,5 18,9 30,1 24,2 17,5 6 3 19 10 N 1018,0 25 13 0,0
25.06.2019 19:00:00 31,5 18,1 33,1 24,0 17,4 11 6 29 16 NNW 1017,5 25 50 0,0
25.06.2019 18:00:00 32,9 18,3 33,8 23,6 17,4 10 5 21 11 NW 1017,0 25 58 0,0
25.06.2019 17:00:00 32,4 17,5 35,7 23,3 17,4 8 5 26 14 WSW 1017,1 25 54 0,0
25.06.2019 16:00:00 32,1 17,2 34,0 22,9 17,4 14 8 26 14 W 1016,9 25 53 0,0
25.06.2019 15:00:00 32,0 18,2 34,8 22,5 17,4 13 7 38 20 SW 1016,5 25 48 0,0
25.06.2019 14:00:00 31,2 18,9 35,6 22,1 17,4 17 9 42 23 SSW 1016,4 20 60 0,0
25.06.2019 13:00:00 30,1 19,5 34,2 21,8 17,4 15 8 36 19 WSW 1016,1 20 60 0,0
25.06.2019 12:00:00 28,5 19,2 32,3 21,6 17,4 15 8 32 18 SSW 1016,0 20 60 0,0
25.06.2019 11:00:00 26,8 18,9 30,6 21,5 17,4 14 8 33 18 S 1015,6 20 60 0,0
25.06.2019 10:00:00 25,8 18,7 29,5 21,5 17,3 12 6 29 16 SSW 1015,4 20 60 0,0
25.06.2019 09:00:00 24,5 17,7 26,2 21,6 17,3 10 5 17 9 SSW 1015,0 20 60 0,0
25.06.2019 08:00:00 23,3 17,5 21,8 21,7 17,3 9 5 15 8 S 1014,5 20 54 0,0
25.06.2019 07:00:00 21,8 17,4 19,8 21,9 17,3 5 3 10 5 E 1014,3 25 19 0,0
25.06.2019 06:00:00 20,5 17,7 18,9 22,0 17,3 8 4 16 9 E 1013,9 25 0 0,0
25.06.2019 05:00:00 20,3 17,9 19,4 22,2 17,3 9 5 19 11 NNE 1013,7 25 0 0,0
25.06.2019 04:00:00 21,2 17,8 20,4 22,3 17,3 11 6 17 9 N 1013,7 25 0 0,0
25.06.2019 03:00:00 21,9 17,9 20,7 22,5 17,3 8 5 14 8 NNE 1013,9 25 0 0,0
25.06.2019 02:00:00 23,0 18,3 21,8 22,6 17,3 8 5 20 11 NE 1014,0 25 0 0,0
25.06.2019 01:00:00 22,7 18,2 21,8 22,7 17,3 14 8 33 18 NE 1014,2 36 0 0,0
25.06.2019 00:00:00 23,3 18,8 22,6 22,9 17,3 14 8 33 18 NNE 1014,5 25 0 0,0
24.06.2019 23:00:00 24,7 19,3 24,1 23,0 17,2 17 9 36 19 NNE 1014,7 25 0 0,0
24.06.2019 22:00:00 25,1 20,6 24,5 23,0 17,3 11 6 32 17 NNE 1015,2 25 0 0,0
24.06.2019 21:00:00 26,3 20,6 25,8 23,0 17,2 14 7 31 17 NE 1014,9 25 2 0,0
24.06.2019 20:00:00 27,9 20,7 28,2 22,9 17,2 18 10 34 18 NE 1015,1 25 46 0,0
24.06.2019 19:00:00 28,6 20,1 30,7 22,7 17,2 18 10 70 38 NNE 1015,1 25 60 0,0
24.06.2019 18:00:00 28,3 19,8 29,8 22,6 17,2 22 12 41 22 NNE 1015,3 25 50 0,0
24.06.2019 17:00:00 28,8 20,5 31,3 22,3 17,2 26 14 49 26 NNE 1015,3 25 13 0,0
24.06.2019 16:00:00 29,8 18,9 32,9 22,0 17,2 18 10 36 19 N 1015,5 25 21 0,0
24.06.2019 15:00:00 29,1 18,8 32,7 21,6 17,2 16 9 34 18 NW 1016,1 25 4 0,0
24.06.2019 14:00:00 29,2 18,9 34,0 21,2 17,2 16 8 35 19 NNW 1015,9 25 50 0,0
24.06.2019 13:00:00 29,8 16,6 32,8 20,9 17,2 9 5 20 11 SSW 1016,0 25 46 0,0
24.06.2019 12:00:00 28,9 16,8 30,5 20,7 17,2 12 6 29 16 SSE 1016,1 25 58 0,0
24.06.2019 11:00:00 27,9 17,7 30,7 20,6 17,2 11 6 25 13 E 1015,5 25 55 0,0
24.06.2019 10:00:00 25,8 17,7 25,3 20,6 17,1 13 7 28 15 SE 1015,9 25 60 0,0
24.06.2019 09:00:00 23,2 16,3 22,4 20,7 17,1 8 4 17 9 ESE 1015,6 25 25 0,0
24.06.2019 08:00:00 21,3 16,3 21,0 20,7 17,1 11 6 17 9 SE 1015,7 25 16 0,0
24.06.2019 07:00:00 21,2 15,9 20,2 20,8 17,1 6 3 12 7 SE 1015,5 25 0 0,0
24.06.2019 06:00:00 21,0 16,4 20,1 21,0 17,1 6 3 10 5 ENE 1015,2 25 0 0,0
24.06.2019 05:00:00 20,8 16,4 19,9 21,1 17,1 8 4 22 12 SE 1015,0 25 0 0,0
24.06.2019 04:00:00 21,5 16,7 20,6 21,2 17,1 16 9 26 14 SE 1014,8 25 0 0,0
24.06.2019 03:00:00 21,6 17,0 20,7 21,4 17,1 16 9 23 12 SE 1015,2 25 0 0,0
24.06.2019 02:00:00 22,5 17,4 21,4 21,5 17,1 15 8 30 16 ESE 1015,1 25 0 0,0
24.06.2019 01:00:00 23,1 17,6 22,2 21,6 17,1 17 9 35 19 SE 1015,2 25 0 0,0
24.06.2019 00:00:00 24,1 17,3 23,5 21,7 17,1 18 10 31 17 SE 1015,1 25 0 0,0
23.06.2019 23:00:00 24,7 17,2 23,4 21,7 17,1 13 7 23 12 ESE 1014,7 25 0 0,0
23.06.2019 22:00:00 25,3 17,2 24,2 21,8 17,1 15 8 23 12 E 1014,2 39 0 0,0
23.06.2019 21:00:00 26,6 16,8 25,9 21,8 17,1 15 8 32 17 ESE 1014,0 25 0 0,0
23.06.2019 20:00:00 27,2 16,2 27,0 21,7 17,1 18 10 41 22 ESE 1013,8 25 3 0,0
23.06.2019 19:00:00 28,0 16,3 28,2 21,5 17,1 22 12 35 19 ESE 1013,6 25 50 0,0
23.06.2019 18:00:00 27,2 15,6 28,1 21,3 17,1 21 11 36 20 SE 1013,9 25 43 0,0
23.06.2019 17:00:00 27,6 15,6 29,0 21,0 17,0 24 13 42 23 SE 1014,3 25 41 0,0
23.06.2019 16:00:00 27,1 15,1 27,7 20,7 17,0 25 14 39 21 ESE 1014,3 25 12 0,0
23.06.2019 15:00:00 27,2 14,6 29,1 20,4 17,0 21 12 43 23 ESE 1014,5 25 42 0,0
23.06.2019 14:00:00 26,4 15,4 30,5 20,0 17,0 21 11 37 20 SE 1015,0 25 60 0,0
23.06.2019 13:00:00 25,9 15,3 29,4 19,7 17,0 21 11 41 22 SE 1015,2 25 57 0,0
23.06.2019 12:00:00 24,8 14,6 29,3 19,5 17,0 19 11 37 20 ESE 1015,5 13 60 0,0
23.06.2019 11:00:00 23,8 14,2 25,6 19,4 17,0 20 11 35 19 SE 1015,9 15 60 0,0
23.06.2019 10:00:00 21,9 13,3 24,8 19,5 17,0 12 7 21 11 ESE 1016,0 15 56 0,0
23.06.2019 09:00:00 20,8 14,0 21,4 19,6 17,0 10 5 19 11 E 1016,0 15 60 0,0
23.06.2019 08:00:00 18,7 13,3 17,7 19,7 17,0 13 7 27 15 ENE 1016,1 15 60 0,0
23.06.2019 07:00:00 16,0 12,7 14,2 19,9 17,0 16 9 28 15 NE 1016,6 10 34 0,0
23.06.2019 06:00:00 14,7 12,0 13,9 20,1 17,0 11 6 18 10 NNE 1016,5 12 0 0,0
23.06.2019 05:00:00 15,2 12,0 14,4 20,2 17,0 10 5 12 7 N 1017,1 11 0 0,0
23.06.2019 04:00:00 15,5 12,1 14,3 20,5 17,0 5 3 16 9 N 1017,1 30 0 0,0
23.06.2019 03:00:00 15,7 12,1 14,8 20,6 17,0 13 7 14 8 NNE 1017,1 30 0 0,0
23.06.2019 02:00:00 16,7 12,2 16,0 20,8 17,0 11 6 16 8 NNE 1017,2 30 0 0,0
23.06.2019 01:00:00 17,5 12,6 16,9 20,9 17,0 10 5 18 10 N 1017,6 30 0 0,0
23.06.2019 00:00:00 18,6 12,6 17,8 21,1 17,0 8 5 24 13 NNE 1018,1 30 0 0,0
22.06.2019 23:00:00 19,4 12,9 18,4 21,2 17,0 13 7 22 12 NE 1018,0 30 0 0,0
22.06.2019 22:00:00 21,3 12,7 20,5 21,3 17,0 11 6 22 12 NE 1017,6 30 0 0,0
22.06.2019 21:00:00 21,8 12,9 21,6 21,3 16,9 11 6 26 14 NE 1017,2 30 0 0,0
22.06.2019 20:00:00 22,4 12,1 22,4 21,2 17,0 11 6 21 11 NE 1017,4 30 0 0,0
22.06.2019 19:00:00 23,2 11,6 24,3 20,9 16,9 15 8 29 16 NE 1017,4 30 38 0,0
22.06.2019 18:00:00 23,2 11,3 25,0 20,6 16,9 11 6 28 15 ENE 1017,4 30 24 0,0
22.06.2019 17:00:00 23,8 11,1 25,7 20,2 17,0 14 8 29 16 NE 1017,8 30 57 0,0
22.06.2019 16:00:00 23,2 10,6 23,7 19,8 17,0 13 7 29 16 ENE 1018,5 30 47 0,0
22.06.2019 15:00:00 22,7 9,5 25,8 19,3 17,0 10 5 36 20 NNE 1018,9 30 55 0,0
22.06.2019 14:00:00 21,8 9,3 26,5 18,9 16,9 13 7 35 19 NNE 1019,5 30 58 0,0
22.06.2019 13:00:00 21,2 9,4 26,2 18,7 16,9 12 6 34 18 NNE 1019,8 30 60 0,0
22.06.2019 12:00:00 20,5 10,0 25,4 18,5 16,9 16 9 37 20 N 1019,8 30 60 0,0
22.06.2019 11:00:00 19,3 10,0 23,7 18,5 16,9 19 11 40 22 NNE 1020,1 30 60 0,0
22.06.2019 10:00:00 17,4 10,5 20,7 18,6 16,9 16 9 56 31 N 1020,6 30 60 0,0
22.06.2019 09:00:00 15,9 10,0 19,2 18,7 16,9 19 11 51 28 N 1020,7 30 60 0,0
22.06.2019 08:00:00 14,4 9,6 14,2 18,9 16,9 16 9 37 20 N 1020,9 30 60 0,0
22.06.2019 07:00:00 12,5 9,1 10,3 19,1 16,9 13 7 36 20 NNE 1021,2 30 27 0,0
22.06.2019 06:00:00 10,6 8,7 10,2 19,3 16,9 14 8 33 18 N 1021,2 23 0 0,0
22.06.2019 05:00:00 11,0 9,1 10,6 19,5 16,9 14 8 17 9 N 1021,4 30 0 0,0
22.06.2019 04:00:00 11,7 9,3 11,3 19,8 16,9 11 6 21 11 N 1021,5 30 0 0,0
22.06.2019 03:00:00 11,9 9,1 11,5 20,0 16,9 14 8 19 10 N 1021,8 30 0 0,0
22.06.2019 02:00:00 12,2 8,3 11,6 20,2 16,9 13 7 17 9 N 1022,1 30 0 0,0
22.06.2019 01:00:00 13,3 8,4 12,4 20,4 16,9 10 5 18 10 N 1022,2 30 0 0,0
22.06.2019 00:00:00 14,4 8,6 13,6 20,6 16,9 12 7 49 26 N 1021,9 30 0 0,0
21.06.2019 23:00:00 15,7 8,4 14,8 20,8 16,9 13 7 40 22 N 1021,7 30 0 0,0
21.06.2019 22:00:00 17,6 8,4 16,8 20,9 16,9 14 8 46 25 NNE 1021,4 30 0 0,0
21.06.2019 21:00:00 19,0 8,3 18,6 20,9 16,9 13 7 30 16 NNE 1020,6 30 15 0,0
21.06.2019 20:00:00 19,7 9,3 19,9 20,9 16,8 12 6 27 15 NNE 1020,4 30 1 0,0
21.06.2019 19:00:00 20,5 7,5 20,9 20,8 16,8 9 5 30 16 N 1020,1 30 35 0,0
21.06.2019 18:00:00 20,9 8,5 21,8 20,5 16,8 14 7 29 16 NE 1020,1 30 28 0,0
21.06.2019 17:00:00 21,0 7,9 22,3 20,2 16,9 11 6 28 15 NNE 1020,2 30 30 0,0
21.06.2019 16:00:00 21,6 8,1 23,4 19,8 16,8 11 6 22 12 N 1020,2 30 31 0,0
21.06.2019 15:00:00 19,8 8,2 22,4 19,4 16,8 11 6 23 12 NE 1020,6 30 33 0,0
21.06.2019 14:00:00 20,0 5,6 21,1 19,0 16,8 6 3 19 10 WNW 1020,6 30 48 0,0
21.06.2019 13:00:00 19,3 7,7 25,8 18,7 16,8 8 4 19 10 NW 1020,8 30 58 0,0
21.06.2019 12:00:00 18,4 8,6 22,6 18,6 16,8 8 5 22 12 NNW 1020,9 30 54 0,0
21.06.2019 11:00:00 18,2 9,0 19,8 18,5 16,8 8 4 16 8 NNW 1020,9 30 44 0,0
21.06.2019 10:00:00 16,9 10,3 22,4 18,6 16,8 9 5 17 9 N 1020,9 30 60 0,0
21.06.2019 09:00:00 15,9 10,4 20,9 18,7 16,8 11 6 18 10 NNW 1020,6 30 60 0,0
21.06.2019 08:00:00 14,4 9,4 13,8 18,9 16,8 5 3 8 4 NW 1020,4 30 21 0,0
21.06.2019 07:00:00 12,6 9,6 11,1 19,1 16,8 3 2 5 3 NNW 1020,1 30 0 0,0
21.06.2019 06:00:00 12,1 9,1 9,6 19,3 16,8 3 2 4 2 NNE 1019,9 26 0 0,0
21.06.2019 05:00:00 12,0 9,0 10,3 19,5 16,7 3 1 8 4 NNW 1019,5 30 0 0,0
21.06.2019 04:00:00 12,4 9,2 10,8 19,6 16,7 4 2 8 4 NNW 1019,3 30 0 0,0
21.06.2019 03:00:00 13,5 9,2 12,2 19,8 16,7 5 3 10 5 NNE 1019,2 30 0 0,0
21.06.2019 02:00:00 13,1 9,2 12,2 20,0 16,7 9 5 10 5 NE 1019,4 30 0 0,0
21.06.2019 01:00:00 14,2 9,2 13,1 20,3 16,7 6 4 11 6 NNW 1018,9 30 0 0,0
21.06.2019 00:00:00 15,0 8,9 13,3 20,5 16,7 8 4 14 7 N 1018,2 30 0 0,0
20.06.2019 23:00:00 15,8 8,5 14,2 20,6 16,7 8 4 10 5 NNW 1017,7 30 0 0,0
20.06.2019 22:00:00 16,9 7,8 15,1 20,7 16,7 7 4 18 10 NNW 1017,4 30 0 0,0
20.06.2019 21:00:00 18,8 7,6 17,8 20,7 16,7 12 7 20 11 NW 1016,7 30 47 0,0
20.06.2019 20:00:00 20,5 7,1 21,4 20,7 16,7 11 6 20 11 NNW 1016,3 30 57 0,0

tt = Température de l'air
td = dewpoint
tt 5cm = Température de l'air 5cm
tt -20cm = Température de l'air -20cm
tt -100cm = Température de l'air -100cm
ff = Vitesse du vent
fx = gusts
dd = Direction du vent
ppp = reduced air pressure
vv = visibility
sd = Ensoleillement
rr = Quantités de précipitations

stations d'obs. à proximité